STARLINK-35918

Last updated on Wed Dec 31 2025 00:02:07 GMT+0000 (Coordinated Universal Time)

1 66643U 25271AC 25364.51952924 .00059909 00000+0 14971-2 0 9994 2 66643 53.1616 102.8400 0001584 111.7990 248.3184 15.39595858 6958
UTC large
Height (km)
Speed (km/s)
/
Latitude / Longitude
Inclination (degrees)
Orbital Period (minutes)
Azimuth
Elevation
Range (km)
Doppler Factor

Next 0 passes for location: London (51.5072 / 0.1276)

Sorry there are no passes over London.